Home   Weather   San Marino   Past weeks

Flag for San Marino Past Weather in San Marino, San Marino — Yesterday and Last 2 Weeks

Now
55 °F

Clear.


Feels Like: 55 °F
Forecast: 51 / 67 °F
Wind: 2 mph from South

Location: Rimini Airport

Current Time: Sep 30, 2016 at 7:06:51 AM

Latest Report: Sep 30, 2016 at 6:15 AM


Visibility: 10 mi

Pressure: 30.12 "Hg (27.82 "Hg at 666m altitude)

Humidity: 94%

Dew Point: 54 °F

Location of San MarinoLocation

Past Weather in San Marino — Graph

°F

San Marino Temperature Yesterday

Maximum temperature yesterday: 72 °F (at 11:15 AM)
Minimum temperature yesterday: 52 °F (at 7:15 AM)
Average temperature yesterday: 63 °F

High & Low Weather Summary for the Past Weeks

 TemperatureHumidityPressure
High81 °F (Sep 15, 3:45 PM)100% (Sep 15, 5:15 AM)30.39 "Hg (Sep 15, 5:15 AM)
Low52 °F (Sep 29, 7:15 AM)47% (Sep 23, 11:15 AM)29.77 "Hg (Sep 19, 4:15 AM)
Average66 °F83%30.06 "Hg
* Reported Sep 15 5:15 AM — Sep 30 5:45 AM, San Marino, Weather by CustomWeather, © 2016

Note: Actual official high and low records may vary slightly from our data, if they occured in-between our weather recording intervals... More about our weather records

Advertising

San Marino Weather History for the Previous 24 Hours

Scroll right to see more
 ConditionsComfort  
Time TempWeatherWind HumidityBarometerVisibility
5:45 AM
Fri, Sep 30
55 °FClear.No wind94%30.12 "Hg10 mi
5:15 AM55 °FClear.No wind94%30.12 "Hg10 mi
4:45 AM55 °FClear.No wind94%30.12 "Hg10 mi
4:15 AM55 °FClear.No wind94%30.15 "Hg10 mi
2:45 AM57 °FClear.1 mph94%30.18 "Hg10 mi
2:15 AM57 °FClear.2 mph94%30.18 "Hg10 mi
1:15 AM57 °FClear.1 mph100%30.18 "Hg10 mi
12:45 AM59 °FClear.2 mph94%30.18 "Hg10 mi
12:15 AM59 °FClear.1 mph94%30.18 "Hg10 mi
11:45 PM
Thu, Sep 29
59 °FClear.2 mph94%30.18 "Hg10 mi
11:15 PM59 °FClear.3 mph94%30.18 "Hg10 mi
10:45 PM59 °FClear.2 mph94%30.18 "Hg10 mi
10:15 PM63 °FClear.2 mph88%30.18 "Hg10 mi
9:45 PM63 °FClear.2 mph88%30.18 "Hg10 mi
9:15 PM63 °FClear.2 mph83%30.18 "Hg10 mi
8:45 PM64 °FClear.2 mph78%30.18 "Hg10 mi
8:15 PM64 °FClear.3 mph78%30.18 "Hg10 mi
7:45 PM68 °FClear.2 mph69%30.18 "Hg10 mi
7:15 PM68 °FClear.3 mph73%30.18 "Hg10 mi
6:45 PM70 °FSunny.2 mph69%30.21 "Hg10 mi
6:15 PM70 °FSunny.6 mph69%30.21 "Hg10 mi
5:45 PM70 °FSunny.9 mph69%30.21 "Hg10 mi
5:15 PM70 °FSunny.12 mph60%30.21 "Hg10 mi
4:45 PM72 °FSunny.13 mph57%30.24 "Hg10 mi
4:15 PM72 °FSunny.12 mph57%30.24 "Hg10 mi
3:45 PM72 °FSunny.13 mph57%30.24 "Hg10 mi
3:15 PM72 °FSunny.13 mph53%30.27 "Hg10 mi
2:45 PM72 °FSunny.13 mph53%30.27 "Hg10 mi
2:15 PM72 °FSunny.13 mph53%30.30 "Hg10 mi
1:45 PM72 °FSunny.10 mph50%30.30 "Hg10 mi
1:15 PM72 °FSunny.10 mph53%30.30 "Hg10 mi
12:45 PM72 °FSunny.9 mph53%30.30 "Hg10 mi
12:15 PM72 °FSunny.6 mph50%30.33 "Hg10 mi
11:45 AM72 °FSunny.6 mph57%30.33 "Hg10 mi
11:15 AM72 °FSunny.2 mph61%30.33 "Hg10 mi
10:45 AM70 °FSunny.1 mph60%30.33 "Hg10 mi
10:15 AM66 °FSunny.No wind68%30.33 "Hg10 mi
9:45 AM63 °FSunny.No wind83%30.33 "Hg10 mi
9:15 AM61 °FSunny.1 mph88%30.33 "Hg10 mi
8:45 AM59 °FSunny.1 mph94%30.33 "Hg10 mi
8:15 AM55 °FSunny.2 mph100%30.33 "Hg10 mi
7:45 AM54 °FSunny.2 mph100%30.33 "Hg10 mi
7:15 AM52 °FSunny.5 mph100%30.33 "Hg10 mi
Weather by CustomWeather, © 2016

See weather overviewHow to use our weather pages